Regional Weather Roundup
Issued by NWS

Home | Current Version | Previous Version | Graphics & Text | Print | Product List | Glossary Off
Versions: 1 2 3 4 5 6 7 8 9 10 11 12 13 14 15 16 17 18 19 20 21 22 23 24 25 26 27 28 29 30 31 32 33 34 35 36 37 38 39 40 41 42 43 44 45 46 47 48 49 50

000
ASUS44 KMEG 052000
RWRTN
TENNESSEE HOURLY STATE WEATHER ROUNDUP
NATIONAL WEATHER SERVICE MEMPHIS TN
200 PM CST THU MAR 05 2015

TNZ002-004-019-021-049-052-054-088>092-052100-
WEST TENNESSEE

CITY           SKY/WX    TMP DP  RH WIND       PRES   REMARKS
MEMPHIS INTL   MOSUNNY   29  13  51 N16       30.50  WCI  17
NWS MEMPHIS      N/A    N/A N/A N/A MISG        N/A
JACKSON        SUNNY     27  12  53 N17G23    30.48  WCI  14
DYERSBURG      SUNNY     25   3  39 NW14      30.53F WCI  13
UNION CITY       N/A     25  12  58 NW13      30.49F WCI  13
PARIS          SUNNY     25   9  50 N9        30.46F WCI  15
LEXINGTON      SUNNY     27  10  50 N12       30.44R WCI  16
SAVANNAH       SUNNY     27  16  63 N16       30.44F WCI  14
$$

TNZ008-025-027-028-033-062-065-066-052100-
NORTH MIDDLE TENNESSEE

CITY           SKY/WX    TMP DP  RH WIND       PRES   REMARKS
NASHVILLE      CLOUDY    25  18  74 N10G17    30.43R WCI  15
CLARKSVILLE    SUNNY     26  12  55 NW14      30.45S WCI  14
COOKEVILLE     CLOUDY    25  21  86 N7        30.33R WCI  17
CROSSVILLE     CLOUDY    22  19  89 N10       30.25R WCI  11
$$

TNZ061-075-076-078-094-096-097-052100-
SOUTH MIDDLE TENNESSEE

CITY           SKY/WX    TMP DP  RH WIND       PRES   REMARKS
FAYETTEVILLE   CLOUDY    21  19  93 N7          N/A  WCI  13
TULLAHOMA      CLOUDY    21  19  93 N10         N/A  WCI  10
WINCHESTER     CLOUDY    23  19  86 N13       30.32F WCI  11
COLUMBIA       PTSUNNY   23  23 100 N9        30.39S WCI  13
SHELBYVILLE    CLOUDY    25  21  86 N10       30.38R WCI  15
$$

TNZ017-018-042-046-047-052100-
NORTHEAST TENNESSEE

CITY           SKY/WX    TMP DP  RH WIND       PRES   REMARKS
TRI CITIES     CLOUDY    30  26  85 N12G21    30.15R WCI  20
ELIZABETHTON   CLOUDY    30  27  86 W8        30.10R WCI  23
$$

TNZ012-013-036-069-073-074-052100-
CENTRAL EAST TENNESSEE

CITY           SKY/WX    TMP DP  RH WIND       PRES   REMARKS
KNOXVILLE      LGT RAIN  29  26  89 N8        30.24R FOG     WCI  21
OAK RIDGE      CLOUDY    30  25  81 VRB3      30.26R
GATLINBURG     CLOUDY    28  27  93 NW8       30.20R WCI  20
$$

TNZ083-085-099-052100-
SOUTHEAST TENNESSEE

CITY           SKY/WX    TMP DP  RH WIND       PRES   REMARKS
CHATTANOOGA    CLOUDY    32  25  75 N17       30.26R WCI  21
$$

SKY/WX REPORTED AS FAIR MEANS FEW OR NO CLOUDS BELOW
12 THOUSAND FEET.




USA.gov is the U.S. government's official web portal to all federal, state and local government web resources and services.